Regional Weather Roundup
Issued by NWS

Home | Current Version | Previous Version | Text Only | Print | Product List | Glossary On
Versions: 1 2 3 4 5 6 7 8 9 10 11 12 13 14 15 16 17 18 19 20 21 22 23 24 25 26 27 28 29 30 31 32 33 34 35 36 37 38 39 40 41 42 43 44 45 46 47 48 49 50
000
ASUS44 KBMX 221710
RWRAL

ALABAMA REGIONAL WEATHER ROUNDUP
NATIONAL WEATHER SERVICE BIRMINGHAM AL
1200 PM CDT MON SEP 22 2014

NOTE: "FAIR" INDICATES FEW OR NO CLOUDS BELOW 12,000 FEET
WITH NO SIGNIFICANT WEATHER AND/OR OBSTRUCTIONS TO VISIBILITY.

THE REMARK "TC" DENOTES TEMPERATURE IN DEGREES CELSIUS.

ALZ001>011-014-016>018-020-221800-
NORTH ALABAMA

CITY           SKY/WX    TMP DP  RH WIND       PRES   REMARKS
MUSCLE SHOALS  SUNNY     74  49  41 N8        30.19S
HUNTSVILLE     MOSUNNY   75  50  41 N16       30.16S
DECATUR        SUNNY     74  47  38 N13       30.17S
HALEYVILLE     FAIR      73  54  51 N8        30.19S
GADSDEN        SUNNY     77  50  38 NE12      30.12S
$$

ALZ012-013-022-023-030>036-040>044-221800-
WEST CENTRAL ALABAMA

CITY           SKY/WX    TMP DP  RH WIND       PRES   REMARKS
TUSCALOOSA     SUNNY     81  51  35 NE13      30.11S
$$

ALZ015-024>027-033>036-040>044-221800-
CENTRAL ALABAMA

CITY           SKY/WX    TMP DP  RH WIND       PRES   REMARKS
BIRMINGHAM     MOSUNNY   77  49  37 N12       30.14S
MONTGOMERY     PTSUNNY   73  64  73 N7        30.08F
SHELBY CO ARPT SUNNY     77  52  41 VRB6      30.11S
MAXWELL AFB    MOSUNNY   72  65  79 N6        30.08S
GREENVILLE     LGT RAIN  73  68  84 N8        30.06S
$$

ALZ019-021-028-029-037-038-045>048-221800-
EAST CENTRAL ALABAMA

CITY           SKY/WX    TMP DP  RH WIND       PRES   REMARKS
ANNISTON       SUNNY     78  50  37 N12       30.10S
ALEXANDER CITY MOSUNNY   78  60  54 N9        30.09S
AUBURN         CLOUDY    63  57  82 N5        30.11F
$$

ALZ051>064-221800-
SOUTHWEST ALABAMA

CITY           SKY/WX    TMP DP  RH WIND       PRES   REMARKS
MOBILE         MOSUNNY   87  69  54 N8        30.03F HX  91
BROOKLEY FIELD MOSUNNY   85  72  65 SE5       30.03F HX  91
EVERGREEN      PTSUNNY   80  68  66 N6        30.05S
$$

ALZ049-050-065>069-221800-
SOUTHEAST ALABAMA

CITY           SKY/WX    TMP DP  RH WIND       PRES   REMARKS
DOTHAN         MOSUNNY   86  69  56 VRB6      30.05S HX  90
OZARK          MOSUNNY   87  68  53 NW9       30.01F HX  91
TROY           LGT RAIN  73  65  75 N8        30.07S
EUFAULA        LGT RAIN  74  66  76 CALM      30.06R
$$


USA.gov is the U.S. government's official web portal to all federal, state and local government web resources and services.